Location: Newark
(45.4422°N, 16.2769°E)
Time: 20:00:31
(UTC+00:00)

Tiros 1 despin weight - Pass Details

Date: 15 December 2019
Orbit: 593 x 643 km, 48.2° (Epoch: 18 January)

Event Time Altitude Azimuth Distance (km) Brightness Sun altitude
Rises 07:54:55 0° 289° (WNW) 2,857 ? 10.6°
Reaches altitude 10° 07:57:20 10° 281° (W) 1,944 ? 10.9°
Maximum altitude 08:01:25 36° 214° (SW) 945 ? 11.4°
Drops below altitude 10° 08:05:28 10° 148° (SSE) 1,919 ? 11.8°
Sets 08:07:51 0° 139° (SE) 2,815 ? 12.1°
